Location: Cedar Springs
(43.2230°N, 85.5510°W)
Time: 14:09:34
(UTC-04:00)

Cosmos 2278 Rocket - Visible Passes

Search period start: 21 September 2014 00:00
Search period end: 01 October 2014 00:00
Orbit: 841 x 846 km, 71.0° (Epoch: 21 September)

Date Brightness Start Highest point End Pass type
(mag) Time Alt. Az. Time Alt. Az. Time Alt. Az.
21 Sep 5.0 01:31:53 10° N 01:32:26 12° N 01:32:26 12° N visible
22 Sep 5.0 01:17:28 10° N 01:17:51 11° N 01:17:51 11° N visible
23 Sep 5.1 01:03:03 10° N 01:03:18 11° N 01:03:18 11° N visible
24 Sep 5.1 00:48:39 10° N 00:48:48 11° N 00:48:48 11° N visible
25 Sep 5.1 00:34:14 10° N 00:34:20 10° N 00:34:20 10° N visible
26 Sep 5.0 00:19:50 10° N 00:19:53 10° N 00:19:53 10° N visible
27 Sep 5.0 00:05:26 10° N 00:05:28 10° N 00:05:28 10° N visible
27 Sep 5.0 23:51:02 10° N 23:51:05 10° N 23:51:05 10° N visible
28 Sep 4.9 23:36:38 10° N 23:36:42 10° N 23:36:42 10° N visible
29 Sep 4.9 23:22:15 10° N 23:22:21 10° N 23:22:21 10° N visible
30 Sep 4.8 23:07:52 10° N 23:08:01 10° NNE 23:08:01 10° NNE visible
